Flag for U.S.A. Weather past 2 weeks in Kilgore, Texas, U.S.A.

Now
61 °F

Passing clouds.


Feels Like: 61 °F
Forecast: 46 / 76 °F
Wind: 10 mph from Southeast

Location: Gregg County Airport

Current Time: Apr 21, 2015 at 10:48:30 AM

Latest Report: Apr 21, 2015 at 9:53 AM


Visibility: 10 mi

Pressure: 30.02 "Hg

Humidity: 56%

Dew point: 45 °F

Location of KilgoreLocation

Historic Weather in Kilgore — Graph

°F

Kilgore temperature yesterday

Maximum temperature yesterday: 71 °F (at 3:53 PM)
Minimum temperature yesterday: 50 °F (at 6:53 AM)
Average temperature yesterday: 61 °F

Past Weeks' High & Low Weather Summary

 TemperatureHumidityPressure
High86 °F (Apr 7, 4:53 PM)97% (Apr 14, 2:53 AM)30.17 "Hg (Apr 14, 2:53 AM)
Low47 °F (Apr 11, 5:53 AM)29% (Apr 20, 2:53 PM)29.64 "Hg (Apr 19, 4:53 PM)
Average68 °F77%29.94 "Hg
* Reported Apr 6 8:53 AM — Apr 21 8:53 AM, Kilgore, Weather by CustomWeather, © 2015

Note: Actual official high and low records may vary slightly from our data, if they occured in-between our weather recording intervals... More about our weather records

Advertising

Kilgore weather history for previous 24 hours

 ConditionsComfort  
Time TempWeatherWind HumidityBarometerVisibility
8:53 AM
Tue, Apr 21
60 °FOvercast.6 mph56%30.05 "Hg10 mi
7:53 AM56 °FPartly sunny.8 mph67%30.02 "Hg10 mi
6:53 AM52 °FPassing clouds.3 mph83%30.01 "Hg10 mi
5:53 AM53 °FOvercast.No wind83%30.00 "Hg10 mi
4:53 AM50 °FPassing clouds.No wind89%30.00 "Hg10 mi
3:53 AM51 °FClear.No wind86%30.01 "Hg10 mi
2:53 AM51 °FOvercast.No wind86%30.01 "Hg10 mi
1:53 AM51 °FPassing clouds.No wind89%30.02 "Hg10 mi
12:53 AM52 °FClear.No wind86%30.02 "Hg10 mi
11:53 PM
Mon, Apr 20
53 °FClear.No wind86%30.01 "Hg10 mi
10:53 PM55 °FClear.3 mph80%29.99 "Hg10 mi
9:53 PM57 °FClear.No wind78%29.98 "Hg10 mi
8:53 PM57 °FClear.No wind78%29.96 "Hg10 mi
7:53 PM63 °FSunny.No wind54%29.94 "Hg10 mi
6:53 PM67 °FSunny.5 mph41%29.93 "Hg10 mi
5:53 PM69 °FSunny.9 mph31%29.93 "Hg10 mi
4:53 PM70 °FSunny.5 mph29%29.92 "Hg10 mi
3:53 PM71 °FSunny.9 mph30%29.93 "Hg10 mi
2:53 PM70 °FSunny.15 mph29%29.94 "Hg10 mi
1:53 PM69 °FSunny.14 mph30%29.96 "Hg10 mi
12:53 PM67 °FSunny.9 mph36%29.98 "Hg10 mi
11:53 AM66 °FSunny.10 mph39%30.00 "Hg10 mi
10:53 AM64 °FSunny.10 mph41%30.00 "Hg10 mi
Weather by CustomWeather, © 2015

See weather overviewHow to use our weather pages